Orbital Elements at Epoch 2459000.5 (2020-May-31.0) TDB
Reference: JPL 21 (heliocentric ecliptic J2000)
Element | Value | Uncertainty (1-sigma) | Units |
e | .2111592834018723 | 3.1465e-08 | |
a | 2.36094597058638 | 8.1252e-09 | au |
q | 1.862410311286822 | 7.5132e-08 | au |
i | 3.956356735533107 | 3.7144e-06 | deg |
node | 279.1318883734399 | 6.4516e-05 | deg |
peri | 139.3817180989264 | 6.5605e-05 | deg |
M | 229.2199219799005 | 1.2545e-05 | deg |
tp | 2459481.856223247303 (2021-Sep-24.35622325) | 4.7571e-05 | TDB |
period | 1325.035456412532 3.63 | 6.8402e-06 1.873e-08 | d yr |
n | .2716908428810518 | 1.4025e-09 | deg/d |
Q | 2.859481629885938 | 9.8409e-09 | au |
|
| | Orbit Determination Parameters
Additional Information
|